| time (UTC) | temp F | wind direction | speed MPH | gust MPH | rain 1hr in | rain 24hr in | rain mn in | humidity % | barometer mb |
| 20260510142226 | 53 | 61 | 5.0 | 16.0 | 0.00 | 0.00 | 0.00 | 61 | 1013.8 |
| 20260510141504 | 53 | 59 | 8.0 | 16.0 | 0.00 | 0.00 | 0.00 | 62 | 1014.1 |
| 20260510140003 | 52 | 36 | 5.0 | 15.0 | 0.00 | 0.00 | 0.00 | 65 | 1014.2 |
| 20260510135226 | 52 | 44 | 8.0 | 15.0 | 0.00 | 0.00 | 0.00 | 65 | 1014.1 |
| 20260510134505 | 52 | 36 | 5.0 | 14.0 | 0.00 | 0.00 | 0.00 | 65 | 1014.4 |
| 20260510133003 | 52 | 68 | 6.0 | 14.0 | 0.00 | 0.00 | 0.00 | 66 | 1014.5 |
| 20260510132226 | 52 | 46 | 4.0 | 14.0 | 0.00 | 0.00 | 0.00 | 65 | 1014.4 |
| 20260510131503 | 53 | 37 | 4.0 | 11.0 | 0.00 | 0.00 | 0.00 | 64 | 1014.5 |
| 20260510130003 | 52 | 43 | 8.0 | 15.0 | 0.00 | 0.00 | 0.00 | 65 | 1014.9 |
| 20260510125226 | 53 | 32 | 8.0 | 15.0 | 0.00 | 0.00 | 0.00 | 66 | 1014.5 |
| 20260510124506 | 52 | 49 | 2.0 | 16.0 | 0.00 | 0.00 | 0.00 | 67 | 1014.8 |
| 20260510123003 | 52 | 38 | 8.0 | 15.0 | 0.00 | 0.00 | 0.00 | 68 | 1014.9 |
| 20260510122226 | 52 | 52 | 4.0 | 14.0 | 0.00 | 0.00 | 0.00 | 68 | 1014.9 |
| 20260510121504 | 52 | 68 | 5.0 | 17.0 | 0.00 | 0.00 | 0.00 | 69 | 1015.0 |
| 20260510120003 | 51 | 41 | 6.0 | 18.0 | 0.00 | 0.00 | 0.00 | 70 | 1015.0 |
| 20260510115226 | 51 | 53 | 4.0 | 13.0 | 0.00 | 0.00 | 0.00 | 70 | 1015.3 |
| 20260510114505 | 51 | 46 | 7.0 | 14.0 | 0.00 | 0.00 | 0.00 | 69 | 1015.0 |
| 20260510113003 | 52 | 63 | 8.0 | 13.0 | 0.00 | 0.00 | 0.00 | 68 | 1015.3 |
| 20260510112226 | 52 | 45 | 4.0 | 13.0 | 0.00 | 0.00 | 0.00 | 70 | 1015.4 |
| 20260510111504 | 52 | 52 | 8.0 | 17.0 | 0.00 | 0.00 | 0.00 | 69 | 1015.6 |
| 20260510110003 | 52 | 34 | 2.0 | 15.0 | 0.00 | 0.00 | 0.00 | 68 | 1015.6 |
| 20260510105226 | 52 | 43 | 5.0 | 15.0 | 0.00 | 0.00 | 0.00 | 68 | 1015.3 |
| 20260510104503 | 52 | 33 | 11.0 | 18.0 | 0.00 | 0.00 | 0.00 | 68 | 1015.7 |
| 20260510103216 | 53 | 48 | 4.0 | 13.0 | 0.00 | 0.00 | 0.00 | 68 | 1015.4 |
| 20260510102226 | 52 | 42 | 4.0 | 15.0 | 0.00 | 0.00 | 0.00 | 70 | 1015.5 |
| 20260510101503 | 51 | 46 | 4.0 | 17.0 | 0.00 | 0.00 | 0.00 | 71 | 1015.5 |
| 20260510100003 | 53 | 42 | 7.0 | 14.0 | 0.00 | 0.00 | 0.00 | 69 | 1015.4 |
| 20260510095226 | 53 | 30 | 7.0 | 15.0 | 0.00 | 0.00 | 0.00 | 70 | 1015.5 |
| 20260510094503 | 53 | 38 | 6.0 | 14.0 | 0.00 | 0.00 | 0.00 | 70 | 1015.6 |
| 20260510093003 | 53 | 17 | 4.0 | 15.0 | 0.00 | 0.00 | 0.00 | 71 | 1015.5 |
| 20260510092226 | 52 | 44 | 4.0 | 15.0 | 0.00 | 0.00 | 0.00 | 72 | 1015.4 |
| 20260510091505 | 53 | 29 | 4.0 | 14.0 | 0.00 | 0.00 | 0.00 | 72 | 1015.6 |
| 20260510090004 | 52 | 46 | 3.0 | 15.0 | 0.00 | 0.00 | 0.00 | 74 | 1015.7 |
| 20260510085226 | 52 | 50 | 6.0 | 17.0 | 0.00 | 0.00 | 0.00 | 73 | 1015.7 |
| 20260510084505 | 52 | 37 | 7.0 | 14.0 | 0.00 | 0.00 | 0.00 | 73 | 1015.7 |
| 20260510083003 | 52 | 55 | 4.0 | 17.0 | 0.00 | 0.00 | 0.00 | 72 | 1015.8 |
| 20260510082226 | 52 | 56 | 5.0 | 16.0 | 0.00 | 0.00 | 0.00 | 72 | 1016.0 |
| 20260510081504 | 52 | 51 | 6.0 | 16.0 | 0.00 | 0.00 | 0.00 | 72 | 1015.7 |
| 20260510080003 | 51 | 49 | 6.0 | 17.0 | 0.00 | 0.00 | 0.00 | 73 | 1015.7 |
| 20260510075226 | 51 | 58 | 8.0 | 17.0 | 0.00 | 0.00 | 0.00 | 74 | 1016.2 |
| 20260510074505 | 51 | 69 | 4.0 | 17.0 | 0.00 | 0.00 | 0.00 | 76 | 1015.8 |
| 20260510073003 | 50 | 34 | 4.0 | 14.0 | 0.00 | 0.00 | 0.00 | 77 | 1016.0 |
| 20260510072226 | 50 | 48 | 7.0 | 14.0 | 0.00 | 0.00 | 0.00 | 78 | 1015.9 |
| 20260510071503 | 50 | 39 | 4.0 | 14.0 | 0.00 | 0.00 | 0.00 | 79 | 1015.9 |
| 20260510070221 | 50 | 31 | 3.0 | 15.0 | 0.00 | 0.00 | 0.00 | 81 | 1015.9 |
| 20260510065226 | 49 | 42 | 6.0 | 14.0 | 0.00 | 0.00 | 0.00 | 82 | 1015.8 |
| 20260510064503 | 49 | 45 | 4.0 | 14.0 | 0.00 | 0.00 | 0.00 | 82 | 1015.8 |
| 20260510063217 | 49 | 26 | 4.0 | 13.0 | 0.00 | 0.00 | 0.00 | 83 | 1015.9 |
| 20260510062226 | 48 | 52 | 5.0 | 11.0 | 0.00 | 0.00 | 0.00 | 83 | 1015.8 |
| 20260510061505 | 48 | 40 | 6.0 | 13.0 | 0.00 | 0.00 | 0.00 | 84 | 1015.9 |
| 20260510060003 | 48 | 36 | 3.0 | 11.0 | 0.00 | 0.00 | 0.00 | 85 | 1015.6 |
| 20260510055226 | 48 | 40 | 4.0 | 9.0 | 0.00 | 0.00 | 0.00 | 86 | 1015.4 |
| 20260510054503 | 47 | 27 | 2.0 | 8.0 | 0.00 | 0.00 | 0.00 | 86 | 1015.3 |
| 20260510053003 | 47 | 48 | 2.0 | 8.0 | 0.00 | 0.00 | 0.00 | 86 | 1015.6 |
| 20260510052226 | 47 | 36 | 2.0 | 7.0 | 0.00 | 0.00 | 0.00 | 86 | 1015.3 |
| 20260510051503 | 47 | 31 | 2.0 | 7.0 | 0.00 | 0.00 | 0.00 | 87 | 1015.5 |
| 20260510050003 | 47 | 41 | 4.0 | 9.0 | 0.00 | 0.00 | 0.00 | 87 | 1015.7 |
| 20260510045226 | 47 | 19 | 4.0 | 8.0 | 0.00 | 0.00 | 0.00 | 87 | 1015.5 |
| 20260510044717 | 47 | 28 | 2.0 | 6.0 | 0.00 | 0.00 | 0.00 | 87 | 1015.5 |
| 20260510043005 | 46 | 18 | 3.0 | 7.0 | 0.00 | 0.00 | 0.00 | 88 | 1015.7 |
| 20260510042226 | 46 | 31 | 1.0 | 7.0 | 0.00 | 0.00 | 0.00 | 88 | 1015.5 |
| 20260510041503 | 46 | 16 | 3.0 | 6.0 | 0.00 | 0.00 | 0.00 | 88 | 1015.6 |
| 20260510035226 | 47 | 21 | 3.0 | 7.0 | 0.00 | 0.00 | 0.00 | 88 | 1015.9 |
| 20260510034719 | 47 | 22 | 4.0 | 6.0 | 0.00 | 0.00 | 0.00 | 87 | 1016.0 |
| 20260510033005 | 47 | 41 | 2.0 | 11.0 | 0.00 | 0.00 | 0.00 | 87 | 1015.9 |
| 20260510032226 | 47 | 15 | 2.0 | 11.0 | 0.00 | 0.00 | 0.00 | 87 | 1016.1 |
| 20260510031504 | 47 | 11 | 2.0 | 8.0 | 0.00 | 0.00 | 0.00 | 88 | 1016.0 |
| 20260510030218 | 47 | 6 | 2.0 | 8.0 | 0.00 | 0.00 | 0.00 | 88 | 1016.1 |
| 20260510025226 | 47 | 24 | 2.0 | 9.0 | 0.00 | 0.00 | 0.00 | 88 | 1015.7 |
| 20260510024504 | 47 | 20 | 4.0 | 9.0 | 0.00 | 0.00 | 0.00 | 88 | 1015.9 |
| 20260510023004 | 47 | 359 | 2.0 | 8.0 | 0.00 | 0.00 | 0.00 | 89 | 1016.0 |
| 20260510022226 | 47 | 28 | 2.0 | 8.0 | 0.00 | 0.00 | 0.00 | 89 | 1016.0 |
| 20260510021503 | 47 | 29 | 4.0 | 9.0 | 0.00 | 0.00 | 0.00 | 89 | 1016.1 |
| 20260510020005 | 47 | 19 | 2.0 | 7.0 | 0.00 | 0.00 | 0.00 | 89 | 1016.0 |
| 20260510015226 | 47 | 27 | 2.0 | 7.0 | 0.00 | 0.00 | 0.00 | 89 | 1016.3 |
| 20260510013003 | 46 | 8 | 1.0 | 4.0 | 0.00 | 0.00 | 0.00 | 88 | 1016.2 |
| 20260510012226 | 46 | 359 | 1.0 | 8.0 | 0.00 | 0.00 | 0.00 | 88 | 1016.0 |
| 20260510011503 | 46 | 356 | 1.0 | 8.0 | 0.00 | 0.00 | 0.00 | 87 | 1016.1 |
| 20260510010005 | 46 | 17 | 2.0 | 7.0 | 0.00 | 0.00 | 0.00 | 86 | 1015.9 |
| 20260510005226 | 47 | 2 | 2.0 | 7.0 | 0.00 | 0.00 | 0.00 | 86 | 1016.1 |
| 20260510004504 | 47 | 17 | 2.0 | 6.0 | 0.00 | 0.00 | 0.00 | 86 | 1016.1 |
| 20260510003004 | 47 | 21 | 2.0 | 4.0 | 0.00 | 0.00 | 0.00 | 84 | 1016.6 |
| 20260510002226 | 47 | 26 | 0.0 | 4.0 | 0.00 | 0.00 | 0.00 | 83 | 1016.4 |
| 20260510001504 | 47 | 25 | 2.0 | 4.0 | 0.00 | 0.00 | 0.00 | 83 | 1016.4 |
| 20260510000005 | 47 | 10 | 0.0 | 4.0 | 0.00 | 0.00 | 0.00 | 80 | 1016.6 |
| 20260509235226 | 48 | 18 | 1.0 | 4.0 | 0.00 | 0.00 | 0.00 | 79 | 1016.4 |
| 20260509234503 | 48 | 31 | 0.0 | 2.0 | 0.00 | 0.00 | 0.00 | 78 | 1016.6 |
| 20260509233004 | 48 | 20 | 2.0 | 4.0 | 0.00 | 0.00 | 0.00 | 77 | 1016.3 |
| 20260509232226 | 49 | 42 | 1.0 | 6.0 | 0.00 | 0.00 | 0.00 | 76 | 1016.5 |
| 20260509231717 | 49 | 48 | 1.0 | 6.0 | 0.00 | 0.00 | 0.00 | 75 | 1016.3 |
| 20260509230005 | 49 | 41 | 2.0 | 6.0 | 0.00 | 0.00 | 0.00 | 72 | 1016.4 |
| 20260509225226 | 49 | 38 | 2.0 | 6.0 | 0.00 | 0.00 | 0.00 | 71 | 1016.3 |
| 20260509224503 | 50 | 32 | 2.0 | 6.0 | 0.00 | 0.00 | 0.00 | 69 | 1016.4 |
| 20260509223003 | 51 | 37 | 2.0 | 4.0 | 0.00 | 0.00 | 0.00 | 68 | 1016.4 |
| 20260509222226 | 51 | 48 | 2.0 | 7.0 | 0.00 | 0.00 | 0.00 | 67 | 1016.5 |
| 20260509221503 | 51 | 38 | 4.0 | 7.0 | 0.00 | 0.00 | 0.00 | 65 | 1016.1 |
| 20260509220003 | 51 | 49 | 1.0 | 4.0 | 0.00 | 0.00 | 0.00 | 63 | 1016.2 |
| 20260509215226 | 51 | 59 | 2.0 | 4.0 | 0.00 | 0.00 | 0.00 | 63 | 1016.3 |
| 20260509214717 | 51 | 54 | 2.0 | 4.0 | 0.00 | 0.00 | 0.00 | 63 | 1016.1 |
| 20260509213006 | 52 | 47 | 2.0 | 4.0 | 0.00 | 0.00 | 0.00 | 62 | 1015.9 |
| 20260509212226 | 52 | 41 | 0.0 | 4.0 | 0.00 | 0.00 | 0.00 | 64 | 1015.6 |
| 20260509211504 | 53 | 48 | 2.0 | 4.0 | 0.00 | 0.00 | 0.00 | 63 | 1015.9 |
| 20260509210219 | 53 | 58 | 2.0 | 4.0 | 0.00 | 0.00 | 0.00 | 62 | 1015.8 |
| 20260509205226 | 54 | 56 | 1.0 | 4.0 | 0.00 | 0.00 | 0.00 | 60 | 1015.8 |
| 20260509204503 | 54 | 55 | 2.0 | 4.0 | 0.00 | 0.00 | 0.00 | 59 | 1015.9 |
| 20260509203217 | 54 | 62 | 1.0 | 4.0 | 0.00 | 0.00 | 0.00 | 57 | 1015.9 |
| 20260509202226 | 54 | 67 | 1.0 | 4.0 | 0.00 | 0.00 | 0.00 | 57 | 1015.6 |
| 20260509201718 | 53 | 87 | 1.0 | 4.0 | 0.00 | 0.00 | 0.00 | 58 | 1015.8 |
| 20260509200004 | 53 | 0 | 0.0 | 0.0 | 0.00 | 0.00 | 0.00 | 59 | 1015.7 |
| 20260509195226 | 54 | 90 | 0.0 | 2.0 | 0.00 | 0.00 | 0.00 | 58 | 1015.4 |
| 20260509194503 | 54 | 93 | 0.0 | 2.0 | 0.00 | 0.00 | 0.00 | 56 | 1015.3 |
| 20260509193217 | 55 | 76 | 1.0 | 2.0 | 0.00 | 0.00 | 0.00 | 55 | 1015.4 |
| 20260509192226 | 56 | 73 | 1.0 | 2.0 | 0.00 | 0.00 | 0.00 | 53 | 1015.4 |
| 20260509191503 | 56 | 76 | 1.0 | 4.0 | 0.00 | 0.00 | 0.00 | 52 | 1015.7 |
| 20260509190003 | 57 | 64 | 1.0 | 4.0 | 0.00 | 0.00 | 0.00 | 50 | 1015.3 |
| 20260509185226 | 58 | 66 | 2.0 | 4.0 | 0.00 | 0.00 | 0.00 | 48 | 1015.2 |
| 20260509184719 | 58 | 62 | 2.0 | 4.0 | 0.00 | 0.00 | 0.00 | 47 | 1015.2 |
| 20260509183003 | 58 | 71 | 2.0 | 6.0 | 0.00 | 0.00 | 0.00 | 46 | 1015.0 |
| 20260509182226 | 59 | 69 | 2.0 | 6.0 | 0.00 | 0.00 | 0.00 | 45 | 1015.1 |
| 20260509181503 | 59 | 79 | 3.0 | 8.0 | 0.00 | 0.00 | 0.00 | 45 | 1015.2 |
| 20260509180003 | 60 | 67 | 4.0 | 8.0 | 0.00 | 0.00 | 0.00 | 43 | 1015.2 |
| 20260509175226 | 61 | 58 | 3.0 | 8.0 | 0.00 | 0.00 | 0.00 | 42 | 1015.0 |
| 20260509174503 | 61 | 63 | 4.0 | 9.0 | 0.00 | 0.00 | 0.00 | 41 | 1014.9 |
| 20260509173004 | 62 | 87 | 4.0 | 11.0 | 0.00 | 0.00 | 0.00 | 40 | 1014.9 |
| 20260509172226 | 61 | 70 | 4.0 | 11.0 | 0.00 | 0.00 | 0.00 | 40 | 1014.8 |
| 20260509171503 | 62 | 66 | 4.0 | 11.0 | 0.00 | 0.00 | 0.00 | 40 | 1015.1 |
| 20260509170004 | 62 | 77 | 3.0 | 9.0 | 0.00 | 0.00 | 0.00 | 41 | 1015.0 |
| 20260509165226 | 63 | 54 | 2.0 | 9.0 | 0.00 | 0.00 | 0.00 | 40 | 1015.2 |
| 20260509164504 | 62 | 53 | 3.0 | 11.0 | 0.00 | 0.00 | 0.00 | 41 | 1015.1 |
| 20260509163003 | 63 | 61 | 3.0 | 9.0 | 0.00 | 0.00 | 0.00 | 42 | 1015.3 |
| 20260509162226 | 64 | 67 | 2.0 | 7.0 | 0.00 | 0.00 | 0.00 | 41 | 1015.2 |
| 20260509161503 | 64 | 48 | 2.0 | 8.0 | 0.00 | 0.00 | 0.00 | 41 | 1015.2 |
| 20260509160005 | 64 | 40 | 2.0 | 15.0 | 0.00 | 0.00 | 0.00 | 42 | 1015.1 |
| 20260509155226 | 64 | 52 | 2.0 | 11.0 | 0.00 | 0.00 | 0.00 | 42 | 1015.4 |
| 20260509154503 | 64 | 68 | 4.0 | 11.0 | 0.00 | 0.00 | 0.00 | 43 | 1015.4 |
| 20260509153219 | 65 | 49 | 2.0 | 11.0 | 0.00 | 0.00 | 0.00 | 43 | 1015.2 |
| 20260509152226 | 65 | 59 | 4.0 | 11.0 | 0.00 | 0.00 | 0.00 | 43 | 1015.3 |
| 20260509151718 | 65 | 58 | 3.0 | 14.0 | 0.00 | 0.00 | 0.00 | 43 | 1015.2 |
| 20260509150004 | 67 | 48 | 2.0 | 11.0 | 0.00 | 0.00 | 0.00 | 41 | 1015.3 |
| 20260509145226 | 67 | 68 | 4.0 | 11.0 | 0.00 | 0.00 | 0.00 | 42 | 1014.9 |
| 20260509144718 | 66 | 56 | 2.0 | 11.0 | 0.00 | 0.00 | 0.00 | 42 | 1014.9 |
| 20260509143005 | 67 | 53 | 5.0 | 11.0 | 0.00 | 0.00 | 0.00 | 38 | 1014.6 |